#timestamp,LO_Frequency,Hit,StdDev 
1510596015.2,286047001.2,N
1510596035.0,286046996.6,N
1510596035.9,286046996.6,N
1510596055.8,286047000.0,N
1510596075.6,286047004.4,N
1510596095.4,286047005.6,N
1510596115.3,286047003.3,N
1510596135.1,286047001.8,N
1510596136.0,286047001.8,N
1510596155.8,286047001.8,N
1510596175.7,286047005.6,N
1510596195.5,286047003.7,N
1510596215.3,286047002.5,N
1510596235.1,286047007.4,N
1510596255.9,286047006.4,N
1510596275.7,286047009.0,N
1510596295.5,286047008.2,N
1510596315.4,286047009.0,N
1510596335.2,286047007.2,N
1510596355.0,286047007.2,N
1510596355.9,286047007.2,N
1510596375.8,286047001.4,N
1510596395.6,286046998.3,N
1510596415.4,286046994.9,N
1510596435.3,286046995.2,N
1510596455.1,286046994.6,N
1510596456.0,286046994.6,N
1510596475.8,286046994.1,N
1510596495.7,286046992.0,N
1510596515.5,286046993.2,N
1510596535.3,286046986.9,N
1510596555.2,286046983.8,N
1510596575.9,286046984.8,N
1510596595.7,286046985.4,N
1510596615.5,286046993.2,N
1510596635.4,286046991.7,N
1510596655.2,286046993.5,N
1510596675.0,286046996.5,N
1510596675.9,286046996.5,N
1510596695.8,286046993.3,N
1510596715.6,286046991.0,N
1510596735.4,286046986.2,N
1510596755.3,286046984.7,N
1510596775.1,286046981.7,N
1510596795.8,286046981.4,N
1510596815.7,286046985.0,N
1510596835.5,286046987.2,N
1510596855.3,286046991.6,N
1510596875.2,286046990.6,N
1510596895.9,286046992.1,N
1510596915.7,286046995.5,N
1510596935.6,286046997.9,N
1510596955.4,286046997.6,N
1510596975.2,286046999.5,N
1510596995.0,286047004.0,N
1510596996.0,286047004.0,N
1510597015.8,286047008.2,N
1510597035.6,286047012.3,N
1510597055.4,286047011.5,N
1510597075.3,286047014.4,N
1510597095.1,286047015.8,N
1510597115.8,286047023.5,N
1510597135.7,286047023.9,N
1510597155.5,286047028.0,N
1510597175.3,286047025.5,N
1510597195.2,286047026.5,N
1510597215.9,286047029.9,N
1510597235.7,286047033.3,N
1510597255.6,286047032.9,N
1510597275.4,286047033.1,N
1510597295.2,286047030.8,N
1510597315.0,286047031.1,N
1510597316.0,286047031.1,N
1510597335.8,286047030.8,N
1510597355.6,286047028.6,N
1510597375.4,286047031.1,N
1510597395.3,286047029.8,N
1510597415.1,286047027.9,N
1510597435.8,286047027.8,N
1510597455.7,286047027.1,N
1510597475.5,286047028.4,N
1510597495.3,286047025.2,N
1510597515.2,286047023.8,N
1510597535.9,286047022.2,N
1510597555.7,286047026.1,Y
1510597575.6,286047001.6,P
1510597595.4,286047000.7,N
1510597615.2,286046997.3,N
1510597635.1,286046995.8,N
1510597636.0,286046995.8,N
1510597655.8,286046992.8,N
1510597675.6,286046992.3,N
1510597695.5,286046990.5,N
1510597715.3,286046991.3,N
1510597735.1,286046994.7,N
1510597755.8,286046995.7,N
1510597775.7,286046995.2,N
1510597795.5,286046995.8,N
1510597815.3,286046996.0,N
1510597835.2,286046994.0,N
1510597855.9,286046990.8,N
1510597875.7,286046994.6,N
1510597895.6,286046993.3,N
1510597915.4,286046997.9,N
1510597935.2,286046996.6,N
1510597955.1,286046995.6,N
1510597956.0,286046995.6,N
1510597975.8,286046998.9,N
1510597995.6,286046996.8,N
1510598015.4,286046995.4,N
1510598035.3,286046992.0,N
1510598055.1,286046990.7,N
1510598075.8,286046993.2,N
1510598095.7,286046990.9,N
1510598115.5,286046994.8,N
1510598135.3,286046992.8,N
1510598155.2,286046990.3,Y
1510598175.0,286046994.9,P
1510598175.9,286046994.9,P
1510598195.7,286046997.2,P
1510598215.6,286047001.2,N
1510598235.4,286046998.5,N
1510598255.2,286047000.9,N
1510598275.1,286046998.1,N
1510598276.0,286046998.1,N
1510598295.8,286046999.3,N
1510598315.6,286046996.5,N
1510598335.5,286046999.6,N
1510598355.3,286047000.4,N
1510598375.1,286046998.7,N
1510598395.9,286046997.4,N
1510598415.7,286046997.5,N
1510598435.5,286046995.2,N
1510598455.4,286046993.7,Y
1510598475.2,286047001.2,P
1510598495.0,286046999.5,N
1510598495.9,286046999.5,N
1510598515.7,286046999.6,N
1510598535.6,286047000.8,N
1510598555.4,286046997.3,N
1510598575.2,286046994.7,Y
1510598595.1,286046996.0,P
1510598596.0,286046996.0,N
1510598615.8,286046997.5,N
1510598635.6,286047000.5,N
1510598655.5,286046996.7,N
1510598675.3,286046999.4,N
1510598695.1,286046996.6,N
1510598715.9,286046995.1,Y
1510598735.7,286046994.9,P
1510598755.5,286046997.5,N
1510598775.4,286046995.1,P
1510598795.2,286046994.5,Y
1510598815.0,286046996.7,P
1510598815.9,286046996.7,P
1510598835.8,286046998.4,P
1510598855.6,286047002.4,N
1510598875.4,286047004.2,N
1510598895.3,286047002.3,N
1510598915.1,286046998.5,N
1510598935.8,286046998.8,N
1510598955.7,286046997.9,N
1510598975.5,286046999.3,N
1510598995.3,286046997.5,N
1510599015.2,286046999.3,N
1510599035.9,286046998.7,N
1510599055.7,286046997.7,N
1510599075.6,286046999.1,N
1510599095.4,286047004.4,N
1510599115.2,286047002.9,N
1510599135.0,286047001.8,N
1510599135.9,286047001.8,N
1510599155.8,286047002.1,N
1510599175.6,286047001.2,N
1510599195.4,286047001.9,N
1510599215.3,286047001.8,N
1510599235.1,286047001.4,N
1510599255.8,286047001.9,N
1510599275.7,286047001.7,N
1510599295.5,286047001.3,N
1510599315.3,286047002.1,N
1510599335.2,286046999.9,N
1510599355.9,286047004.4,N
1510599375.7,286047004.1,N
1510599395.5,286047002.4,N
1510599415.4,286046998.9,N
1510599435.2,286047000.8,N
1510599455.0,286047001.7,N
1510599455.9,286047001.7,N
1510599475.8,286047003.7,N
1510599495.6,286047004.0,N
1510599515.4,286047005.2,N
1510599535.3,286047004.9,N
1510599555.1,286047004.9,N
1510599556.0,286047004.9,N
1510599575.8,286047005.5,N
1510599595.7,286047002.9,N
